TRANSPORTER-15 CY (66760 NORAD) Tracking and Keplerian Element Data

This shows tracking and keplerian element data for the satellite.

Feedback or suggestion? Click here.




ElementValue
Catalog66760
NameTRANSPORTER-15 CY
Epoch Orbit325
Epoch Day354.17962097
Epoch Year2025
RAAN65.8363
Inclination97.4409
Eccentricity0.0001603
Argument of Perigee112.1646
Mean Anonmoly247.9758
Mean Motion15.18157302
Decay Rate6.36E-05
L11 66760U 25276CY 25354.17962097 .00006360 00000+0 31464-3 0 9992
L22 66760 97.4409 65.8363 0001603 112.1646 247.9758 15.18157302 3257



Live tracking and technical data element details for TRANSPORTER-15 CY (NORAD 66760). TRANSPORTER-15 CY can be tracked NOW for your location showing map with azimuth and elevation plus other details from your city location.







IsCatalogInMostPopularTable: catalog: 66760, numindb: 19
Update: records affected: 1



GetName: 66760 TRANSPORTER-15 CY

Hit Count: updated at: Mon, 20 Apr 2026 10:44:55 GMT